FW1986 Weather Reports


time (UTC)temp
C
wind
direction
speed
KPH
gust
KPH
rain 1hr
cm
rain 24hr
cm
rain mn
cm
humidity
%
barometer
mb
20260506164319 13 0 16.1 25.7 0.00 0.00 0.00 74 1011.1
20260506163317 13 0 17.7 25.7 0.00 0.00 0.00 72 1011.0
20260506162819 13 0 16.1 27.4 0.00 0.00 0.00 74 1011.0
20260506161808 13 0 11.3 27.4 0.00 0.00 0.00 73 1010.9
20260506161309 13 0 16.1 27.4 0.00 0.00 0.00 75 1010.9
20260506160811 13 0 14.5 25.7 0.00 0.00 0.00 74 1010.9
20260506160310 13 0 16.1 27.4 0.00 0.00 0.00 74 1010.9
20260506155811 13 0 19.3 27.4 0.00 0.00 0.00 72 1010.8
20260506155320 13 0 16.1 25.7 0.00 0.00 0.00 71 1010.8
20260506154810 13 0 16.1 27.4 0.00 0.00 0.00 74 1010.8
20260506154310 13 0 17.7 27.4 0.00 0.00 0.00 73 1010.8
20260506153808 13 0 17.7 25.7 0.00 0.00 0.00 72 1010.8
20260506153308 13 0 16.1 27.4 0.00 0.00 0.00 73 1010.7
20260506152806 13 0 17.7 27.4 0.00 0.00 0.00 73 1010.8
20260506152317 13 0 14.5 24.1 0.00 0.00 0.00 73 1010.9
20260506151807 13 0 12.9 24.1 0.00 0.00 0.00 74 1010.7
20260506151307 13 0 11.3 27.4 0.00 0.00 0.00 73 1010.8
20260506150806 13 0 17.7 29.0 0.00 0.00 0.00 73 1010.9
20260506145803 13 0 16.1 30.6 0.00 0.00 0.00 75 1010.8
20260506145305 13 0 16.1 27.4 0.00 0.00 0.00 75 1010.8
20260506144302 13 0 20.9 30.6 0.00 0.00 0.00 75 1010.8
20260506143802 13 0 19.3 29.0 0.00 0.00 0.00 76 1010.7
20260506143302 13 0 17.7 33.8 0.00 0.00 0.00 75 1010.6
20260506142802 13 0 19.3 33.8 0.00 0.00 0.00 75 1010.6
20260506142305 13 0 20.9 29.0 0.00 0.00 0.00 75 1010.7
20260506141803 13 0 19.3 30.6 0.00 0.00 0.00 75 1010.7
20260506141302 13 0 16.1 30.6 0.00 0.00 0.00 75 1010.6
20260506140802 13 0 14.5 25.7 0.00 0.00 0.00 75 1010.6
20260506140302 13 0 14.5 25.7 0.00 0.00 0.00 75 1010.6
20260506135802 13 0 14.5 25.7 0.00 0.00 0.00 75 1010.6
20260506135306 13 0 14.5 25.7 0.00 0.00 0.00 75 1010.7
20260506134304 13 0 14.5 22.5 0.00 0.00 0.00 75 1010.7
20260506133804 13 0 16.1 24.1 0.00 0.00 0.00 75 1010.6
20260506133303 13 0 17.7 27.4 0.00 0.00 0.00 75 1010.7
20260506132305 13 0 14.5 27.4 0.00 0.00 0.00 75 1010.7
20260506131805 13 0 17.7 27.4 0.00 0.00 0.00 77 1010.6
20260506131302 13 0 17.7 25.7 0.00 0.00 0.00 77 1010.6
20260506130803 13 0 14.5 27.4 0.00 0.00 0.00 77 1010.7
20260506130303 13 0 14.5 27.4 0.00 0.00 0.00 78 1010.7
20260506125802 13 0 14.5 24.1 0.00 0.00 0.00 78 1010.6
20260506125305 13 0 12.9 24.1 0.00 0.00 0.00 79 1010.7
20260506124803 13 0 11.3 24.1 0.00 0.00 0.00 79 1010.5
20260506124304 13 0 16.1 24.1 0.00 0.00 0.00 79 1010.5
20260506123802 13 0 11.3 20.9 0.00 0.00 0.00 79 1010.5
20260506123304 12 0 14.5 22.5 0.00 0.00 0.00 79 1010.5
20260506122802 12 0 16.1 22.5 0.00 0.00 0.00 79 1010.4
20260506122305 12 1 16.1 24.1 0.00 0.00 0.00 79 1010.5
20260506121302 12 0 17.7 22.5 0.00 0.00 0.00 79 1010.6
20260506120802 12 0 12.9 22.5 0.00 0.00 0.00 80 1010.6
20260506120302 12 0 11.3 25.7 0.00 0.00 0.00 80 1010.5
20260506115306 12 0 12.9 24.1 0.00 0.00 0.00 79 1010.6
20260506114302 12 0 12.9 22.5 0.00 0.00 0.00 79 1010.6
20260506113301 12 0 17.7 24.1 0.00 0.00 0.00 79 1010.6
20260506112800 12 4 16.1 29.0 0.00 0.00 0.00 78 1010.6
20260506112305 12 0 16.1 29.0 0.00 0.00 0.00 79 1010.6
20260506111800 12 0 17.7 25.7 0.00 0.00 0.00 79 1010.5
20260506111300 12 0 16.1 25.7 0.00 0.00 0.00 79 1010.5
20260506110759 12 0 12.9 25.7 0.00 0.00 0.00 79 1010.5
20260506110300 12 0 14.5 27.4 0.00 0.00 0.00 78 1010.5
20260506105800 12 0 19.3 29.0 0.00 0.00 0.00 78 1010.5
20260506105300 12 0 17.7 30.6 0.00 0.00 0.00 78 1010.5
20260506104800 12 0 16.1 33.8 0.00 0.00 0.00 78 1010.5
20260506104302 12 0 22.5 33.8 0.00 0.00 0.00 79 1010.5
20260506103802 12 0 16.1 24.1 0.00 0.00 0.00 80 1010.5
20260506103301 12 0 14.5 29.0 0.00 0.00 0.00 80 1010.5
20260506102300 11 0 19.3 32.2 0.00 0.00 0.00 80 1010.4
20260506101802 11 0 17.7 25.7 0.00 0.00 0.00 81 1010.5
20260506100800 11 0 16.1 27.4 0.00 0.00 0.00 79 1010.4
20260506100300 11 0 14.5 32.2 0.00 0.00 0.00 78 1010.5
20260506095300 11 7 19.3 30.6 0.00 0.00 0.00 78 1010.3
20260506094759 11 0 22.5 30.6 0.00 0.00 0.00 77 1010.3
20260506093800 12 0 16.1 29.0 0.00 0.00 0.00 78 1010.2
20260506093303 12 0 17.7 33.8 0.00 0.00 0.00 77 1010.3
20260506092800 12 0 19.3 33.8 0.00 0.00 0.00 77 1010.3
20260506092300 12 0 20.9 32.2 0.00 0.00 0.00 78 1010.2
20260506091802 12 0 14.5 29.0 0.00 0.00 0.00 77 1010.2
20260506091300 12 0 14.5 29.0 0.00 0.00 0.00 78 1010.1
20260506090800 12 0 17.7 27.4 0.00 0.00 0.00 78 1010.1
20260506090300 12 0 16.1 27.4 0.00 0.00 0.00 78 1010.1
20260506085800 12 0 20.9 27.4 0.00 0.00 0.00 78 1010.0
20260506085302 12 0 17.7 27.4 0.00 0.00 0.00 78 1010.0
20260506084800 12 0 12.9 32.2 0.00 0.00 0.00 78 1009.9
20260506084259 12 0 19.3 32.2 0.00 0.00 0.00 78 1009.9
20260506083756 12 0 16.1 29.0 0.00 0.00 0.00 78 1009.8
20260506083258 12 0 20.9 29.0 0.00 0.00 0.00 78 1009.8
20260506082757 12 0 14.5 32.2 0.00 0.00 0.00 78 1009.7
20260506082257 12 13 19.3 32.2 0.00 0.00 0.00 78 1009.7
20260506081757 12 0 19.3 27.4 0.00 0.00 0.00 79 1009.7
20260506081259 12 0 14.5 27.4 0.00 0.00 0.00 79 1009.7
20260506080758 12 0 14.5 30.6 0.00 0.00 0.00 79 1009.6
20260506080257 12 0 20.9 33.8 0.00 0.00 0.00 78 1009.6
20260506072756 11 0 19.3 27.4 0.00 0.00 0.00 81 1009.5
20260506072257 11 0 11.3 25.7 0.00 0.00 0.00 81 1009.6
20260506071759 11 0 14.5 25.7 0.00 0.00 0.00 81 1009.6
20260506071258 11 0 17.7 29.0 0.00 0.00 0.00 82 1009.4
20260506070756 11 3 16.1 29.0 0.00 0.00 0.00 81 1009.4
20260506070257 11 0 20.9 27.4 0.00 0.00 0.00 81 1009.4
20260506062254 10 0 14.5 22.5 0.00 0.00 0.00 83 1009.3
20260506061754 10 0 11.3 19.3 0.00 0.00 0.00 84 1009.4
20260506061253 10 0 11.3 24.1 0.00 0.00 0.00 84 1009.4
20260506060756 10 0 14.5 24.1 0.00 0.00 0.00 84 1009.4
20260506060255 10 0 14.5 20.9 0.00 0.00 0.00 84 1009.4
20260506051245 9 0 9.7 14.5 0.00 0.00 0.00 85 1009.2
20260506050744 9 0 9.7 17.7 0.00 0.00 0.00 85 1009.2
20260506050242 9 0 11.3 17.7 0.00 0.00 0.00 84 1009.3
20260506044742 9 0 8.0 20.9 0.00 0.00 0.00 84 1009.3
20260506044243 9 0 9.7 20.9 0.00 0.00 0.00 84 1009.3
20260506043741 9 0 9.7 25.7 0.00 0.00 0.00 84 1009.3
20260506043241 9 0 11.3 25.7 0.00 0.00 0.00 84 1009.3
20260506042742 9 0 9.7 22.5 0.00 0.00 0.00 84 1009.4
20260506042243 9 0 11.3 22.5 0.00 0.00 0.00 84 1009.4
20260506041742 9 0 11.3 19.3 0.00 0.00 0.00 83 1009.4
20260506041241 9 0 11.3 19.3 0.00 0.00 0.00 83 1009.4
20260506040741 9 0 9.7 19.3 0.00 0.00 0.00 84 1009.4
20260506035741 9 0 12.9 22.5 0.00 0.00 0.00 83 1009.3
20260506035246 9 0 11.3 20.9 0.00 0.00 0.00 83 1009.3
20260506034745 9 0 12.9 20.9 0.00 0.00 0.00 84 1009.4
20260506034241 10 0 11.3 20.9 0.00 0.00 0.00 84 1009.4
20260506033741 10 0 12.9 20.9 0.00 0.00 0.00 84 1009.4
20260506033243 10 6 11.3 19.3 0.00 0.00 0.00 84 1009.4
20260506032241 10 0 9.7 20.9 0.00 0.00 0.00 84 1009.4
20260506031741 10 0 14.5 20.9 0.00 0.00 0.00 84 1009.4
20260506031241 10 0 11.3 20.9 0.00 0.00 0.00 84 1009.4
20260506030743 9 0 9.7 20.9 0.00 0.00 0.00 85 1009.4
20260506030244 9 0 9.7 16.1 0.00 0.00 0.00 85 1009.5
20260506025742 9 0 8.0 14.5 0.00 0.00 0.00 85 1009.5
20260506025244 9 0 6.4 11.3 0.00 0.00 0.00 85 1009.5
20260506024743 9 0 4.8 8.0 0.00 0.00 0.00 85 1009.5
20260506024241 9 0 4.8 9.7 0.00 0.00 0.00 85 1009.5
20260506023741 9 0 6.4 9.7 0.00 0.00 0.00 85 1009.5
20260506023244 9 0 6.4 9.7 0.00 0.00 0.00 85 1009.6
20260506022742 9 0 6.4 9.7 0.00 0.00 0.00 84 1009.6
20260506022243 9 0 6.4 11.3 0.00 0.00 0.00 84 1009.6
20260506021743 9 0 6.4 16.1 0.00 0.00 0.00 84 1009.6
20260506021241 9 0 9.7 16.1 0.00 0.00 0.00 84 1009.6
20260506020745 9 0 8.0 17.7 0.00 0.00 0.00 84 1009.7
20260506020242 9 0 11.3 17.7 0.00 0.00 0.00 84 1009.6
20260506015241 9 0 9.7 16.1 0.00 0.00 0.00 84 1009.6
20260506014741 9 0 11.3 17.7 0.00 0.00 0.00 84 1009.7
20260506013743 9 0 8.0 19.3 0.00 0.00 0.00 84 1009.7
20260506013242 9 0 9.7 19.3 0.00 0.00 0.00 84 1009.7
20260506012742 9 0 9.7 19.3 0.00 0.00 0.00 83 1009.7
20260506012242 9 0 11.3 19.3 0.00 0.00 0.00 83 1009.8
20260506011741 9 0 9.7 17.7 0.00 0.00 0.00 83 1009.7
20260506011242 9 0 11.3 17.7 0.00 0.00 0.00 83 1009.7
20260506010743 9 0 11.3 17.7 0.00 0.00 0.00 83 1009.7
20260506010241 9 0 9.7 20.9 0.00 0.00 0.00 83 1009.7
20260506005242 9 0 12.9 24.1 0.00 0.00 0.00 83 1009.7
20260506004242 10 6 17.7 27.4 0.00 0.00 0.00 83 1009.8
20260506002741 10 0 12.9 25.7 0.00 0.00 0.00 83 1010.0
20260506002242 10 0 19.3 25.7 0.00 0.00 0.00 83 1010.0
20260506001743 10 0 14.5 24.1 0.00 0.00 0.00 83 1010.1
20260506001245 10 0 14.5 24.1 0.00 0.00 0.00 83 1010.1
20260506000742 10 7 16.1 24.1 0.00 0.00 0.00 83 1010.1
20260506000242 10 0 14.5 22.5 0.00 0.00 0.00 83 1010.1
20260505235743 10 11 14.5 22.5 0.00 0.00 0.00 83 1010.2
20260505234238 10 1 11.3 22.5 0.00 0.00 0.00 83 1010.2
20260505233735 10 8 12.9 24.1 0.00 0.00 0.00 83 1010.2
20260505233235 10 0 16.1 24.1 0.00 0.00 0.00 84 1010.2
20260505231737 10 1 14.5 27.4 0.00 0.00 0.00 84 1010.3
20260505231236 10 0 11.3 27.4 0.00 0.00 0.00 84 1010.3
20260505230736 10 1 12.9 25.7 0.00 0.00 0.00 84 1010.2
20260505230235 10 0 17.7 25.7 0.00 0.00 0.00 84 1010.2
20260505225736 10 0 14.5 22.5 0.00 0.00 0.00 84 1010.1
20260505225237 10 0 12.9 25.7 0.00 0.00 0.00 84 1010.2
20260505224737 10 0 12.9 25.7 0.00 0.00 0.00 85 1010.2
20260505224237 10 8 12.9 20.9 0.00 0.00 0.00 85 1010.3
20260505223737 10 0 11.3 22.5 0.00 0.00 0.00 85 1010.3
20260505223235 10 0 14.5 24.1 0.00 0.00 0.00 85 1010.3
20260505222739 10 0 9.7 24.1 0.00 0.00 0.00 85 1010.3
20260505222236 10 0 12.9 22.5 0.00 0.00 0.00 85 1010.3
20260505221736 10 0 9.7 20.9 0.00 0.00 0.00 85 1010.3
20260505220237 10 0 11.3 22.5 0.00 0.00 0.00 85 1010.4
20260505215736 10 0 12.9 22.5 0.00 0.00 0.00 85 1010.4
20260505215235 10 0 14.5 20.9 0.00 0.00 0.00 85 1010.3
20260505214740 10 0 12.9 22.5 0.00 0.00 0.00 85 1010.3
20260505214236 10 1 14.5 22.5 0.00 0.00 0.00 85 1010.3
20260505213735 10 10 11.3 27.4 0.00 0.00 0.00 85 1010.3
20260505213236 10 23 14.5 27.4 0.00 0.00 0.00 84 1010.3
20260505212737 10 0 14.5 25.7 0.00 0.00 0.00 84 1010.3
20260505212236 10 0 14.5 22.5 0.00 0.00 0.00 84 1010.2
20260505211733 10 0 16.1 25.7 0.00 0.00 0.00 84 1010.2
20260505211233 10 0 16.1 27.4 0.00 0.00 0.00 84 1010.2
20260505210732 10 0 19.3 27.4 0.00 0.00 0.00 84 1010.2
20260505210232 10 0 14.5 25.7 0.00 0.00 0.00 84 1010.3
20260505205733 10 0 16.1 25.7 0.00 0.00 0.00 84 1010.3
20260505205232 10 0 14.5 25.7 0.00 0.00 0.00 84 1010.3
20260505204732 10 0 14.5 24.1 0.00 0.00 0.00 84 1010.3
20260505203732 10 1 16.1 24.1 0.00 0.00 0.00 84 1010.3
20260505203230 10 0 14.5 24.1 0.00 0.00 0.00 84 1010.3
20260505202731 10 0 14.5 25.7 0.00 0.00 0.00 84 1010.3
20260505202231 10 4 16.1 25.7 0.00 0.00 0.00 84 1010.3
20260505201731 10 0 12.9 25.7 0.00 0.00 0.00 84 1010.3
20260505201231 11 0 16.1 25.7 0.00 0.00 0.00 84 1010.3
20260505200732 11 14 14.5 24.1 0.00 0.00 0.00 83 1010.2
20260505200231 11 0 11.3 22.5 0.00 0.00 0.00 84 1010.1
20260505195231 11 0 16.1 24.1 0.00 0.00 0.00 83 1010.1
20260505194230 11 0 14.5 24.1 0.00 0.00 0.00 83 1010.0
20260505193732 11 0 16.1 32.2 0.00 0.00 0.00 83 1009.9
20260505193233 11 0 20.9 32.2 0.00 0.00 0.00 83 1009.9
20260505192731 11 0 16.1 27.4 0.00 0.00 0.00 82 1009.9
20260505191731 11 6 17.7 30.6 0.00 0.00 0.00 82 1009.9
20260505191231 11 0 12.9 22.5 0.00 0.00 0.00 81 1009.9
20260505190731 11 0 14.5 22.5 0.00 0.00 0.00 81 1009.9
20260505190231 11 0 14.5 24.1 0.00 0.00 0.00 81 1009.9
20260505185734 11 10 12.9 29.0 0.00 0.00 0.00 81 1009.9
20260505185232 11 0 12.9 29.0 0.00 0.00 0.00 81 1009.8
20260505184745 11 0 14.5 25.7 0.00 0.00 0.00 81 1009.8
20260505184231 11 0 14.5 22.5 0.00 0.00 0.00 81 1009.7
20260505183731 11 0 14.5 29.0 0.00 0.00 0.00 81 1009.8
20260505183232 11 0 16.1 29.0 0.00 0.00 0.00 80 1009.7
20260505181733 12 0 17.7 30.6 0.00 0.00 0.00 80 1009.7
20260505180731 12 0 17.7 30.6 0.00 0.00 0.00 79 1009.7
20260505180231 12 0 16.1 35.4 0.00 0.00 0.00 79 1009.7
20260505175731 12 0 24.1 35.4 0.00 0.00 0.00 78 1009.7
20260505173229 12 0 20.9 29.0 0.00 0.00 0.00 77 1009.6
20260505172729 12 0 17.7 29.0 0.00 0.00 0.00 77 1009.6
20260505172229 13 0 17.7 27.4 0.00 0.00 0.00 77 1009.6
20260505171731 13 1 19.3 27.4 0.00 0.00 0.00 76 1009.7
20260505171229 13 0 19.3 29.0 0.00 0.00 0.00 76 1009.5
20260505170233 13 0 19.3 30.6 0.00 0.00 0.00 76 1009.5
20260505165730 13 7 19.3 30.6 0.00 0.00 0.00 74 1009.6
20260505164729 13 0 17.7 29.0 0.00 0.00 0.00 74 1009.4